Regional Weather Roundup
Issued by NWS State College, PA

Home | Current Version | Previous Version | Text Only | Print | Product List | Glossary On
Versions: 1 2 3 4 5 6 7 8 9 10 11 12 13 14 15 16 17 18 19 20 21 22 23 24 25 26 27 28 29 30 31 32 33 34 35 36 37 38 39 40 41 42 43 44 45 46 47 48 49 50
000
ASUS41 KCTP 230110
RWRCTP

REGIONAL WEATHER ROUNDUP
NATIONAL WEATHER SERVICE STATE COLLEGE PA
900 PM EDT THU JUN 22 2017

Note: "fair" indicates few or no clouds below 12,000 feet with no
significant weather and/or obstructions to visibility.

* = STATION THAT DOES NOT REPORT PRECIPITATION /E.G. RAIN...SNOW...ETC/
    THUNDER OR FOG.

PAZ002>004-007>009-013>016-020>023-029>032-230200-
WESTERN PENNSYLVANIA

CITY           SKY/WX    TMP DP  RH WIND       PRES   REMARKS
ERIE           CLOUDY    80  68  66 S12       29.84F
MEADVILLE      PTCLDY    76  68  76 S6        29.91F
FRANKLIN*      PTCLDY    75  63  64 SW9       29.95R
NEW CASTLE     FAIR      78  68  71 VRB3      29.94R
BEAVER COUNTY  CLEAR     75  66  73 S6        29.94F
BUTLER*        PTCLDY    75  66  73 S6        29.96S
PITTSBURGH INT MOCLDY    79  69  71 S6        29.95F
PITTSBURGH     CLOUDY    77  67  71 S6        29.95F
INDIANA*       CLEAR     68  68 100 CALM      30.00F
LATROBE        MOCLDY    73  72  94 CALM      29.98F
WASHINGTON CO* PTCLDY    75  66  73 S3        29.98F
$$

PAZ004>006-010>012-017>019-024>028-033>037-041-042-045-046-049>053-230200-
CENTRAL PENNSYLVANIA

CITY           SKY/WX    TMP DP  RH WIND       PRES   REMARKS
BRADFORD       MOCLDY    72  68  87 S8        29.97S
DUBOIS         MOCLDY    70  65  84 SW6       29.97F
CLEARFIELD     CLOUDY    70  67  90 SW6       29.98F
JOHNSTOWN      CLOUDY    72  65  78 SW6       30.02F
ALTOONA        CLOUDY    69  68  96 N3        30.00F
STATE COLLEGE  CLOUDY    72  68  88 W5        29.98S
WILLIAMSPORT   CLOUDY    77  70  79 W6        29.92R
SELINSGROVE    LGT RAIN  74  71  91 S6        29.94R
FT INDIANTOWN  LGT RAIN  74  72  94 S3        29.94S
CAPITAL CITY   TSTM      77  72  84 NW3       29.95R
HARRISBURG     TSTM      78  73  84 NW8       29.94R
YORK           CLOUDY    81  71  71 SW6       29.95R
$$

PAZ038>040-043-044-047-048-054-055-060>062-067>071-230200-
EASTERN PENNSYLVANIA

CITY           SKY/WX    TMP DP  RH WIND       PRES   REMARKS
SCRANTON       CLOUDY    80  67  64 SW12      29.93R
MOUNT POCONO   CLOUDY    72  65  78 W6        29.98S
ALLENTOWN      CLOUDY    82  68  62 SW10      29.92R
QUAKERTOWN*    CLOUDY    79  72  78 SW5       29.95S
READING        CLOUDY    83  72  69 SW8       29.92R
LANCASTER      CLOUDY    83  72  69 SW8       29.94R
COATESVILLE    CLOUDY    79  70  73 VRB3      29.98R
POTTSTOWN      CLOUDY    80  71  74 SW5       29.95R
BLUE BELL      CLOUDY    79  70  73 SW5       29.95S
DOYLESTOWN     CLOUDY    81  69  67 VRB6      29.92S
WILLOW GROVE   NOT AVBL
NORTH PHILA    MOCLDY    84  68  58 W7        29.94R
PHILADELPHIA   CLOUDY    84  68  58 SW10      29.93S
$$




USA.gov is the U.S. government's official web portal to all federal, state and local government web resources and services.